This is the latest recevied weather packets stored in our database for station/object VK2BLR. If no packets are shown the sender has not sent any weather packets the latest 10 day(s).
| Time | Temp. | Humidity | Pressure | Rain* | Wind** | Luminosity | Snow |
|---|---|---|---|---|---|---|---|
| 1777961312 | 18.33° C | 51% | 1018.7 hPa | 0 mm | - | - | - |
| 1777960414 | 18.33° C | 48% | 1018.7 hPa | 0 mm | - | - | - |
| 1777959514 | 18.33° C | 51% | 1018.4 hPa | 0 mm | - | - | - |
| 1777958613 | 17.78° C | 53% | 1018.6 hPa | 0 mm | - | - | - |
| 1777957712 | 18.33° C | 51% | 1018.5 hPa | 0 mm | - | - | - |
| 1777956814 | 18.33° C | 50% | 1018.4 hPa | 0 mm | - | - | - |
| 1777955914 | 18.89° C | 49% | 1018.5 hPa | 0 mm | - | - | - |
| 1777955012 | 18.89° C | 51% | 1018.5 hPa | 0 mm | - | - | - |
| 1777954112 | 18.89° C | 50% | 1018.2 hPa | 0 mm | - | - | - |
| 1777953214 | 19.44° C | 51% | 1018.1 hPa | 0 mm | - | - | - |
| 1777952313 | 20° C | 50% | 1018.1 hPa | 0 mm | - | - | - |
| 1777951412 | 19.44° C | 50% | 1018.2 hPa | 0 mm | - | - | - |
| 1777950513 | 20° C | 51% | 1018.4 hPa | 0 mm | - | - | - |
| 1777949613 | 19.44° C | 52% | 1018.4 hPa | 0 mm | - | - | - |
| 1777948713 | 19.44° C | 52% | 1018.4 hPa | 0 mm | - | - | - |
| 1777947812 | 19.44° C | 52% | 1018.7 hPa | 0 mm | - | - | - |
| 1777946913 | 20.56° C | 52% | 1018.8 hPa | 0 mm | - | - | - |
| 1777946013 | 20° C | 51% | 1018.9 hPa | 0 mm | - | - | - |
| 1777945113 | 20° C | 52% | 1019.3 hPa | 0 mm | - | - | - |
| 1777944213 | 20.56° C | 52% | 1019.2 hPa | 0 mm | - | - | - |
| 1777943312 | 20° C | 55% | 1019.1 hPa | 0 mm | - | - | - |
| 1777942414 | 19.44° C | 57% | 1019.1 hPa | 0 mm | - | - | - |
| 1777941514 | 18.89° C | 59% | 1019 hPa | 0 mm | - | - | - |
| 1777940614 | 18.89° C | 58% | 1019 hPa | 0 mm | - | - | - |
| 1777939712 | 18.89° C | 58% | 1019 hPa | 0 mm | - | - | - |
* Rain latest hour (hover to see other rain measurements)
** Current wind speed in m/s (hover to see current wind gust speed)